Location: Celina Elementary School
(33.3262°N, 96.7767°W)
Time: 08:33:50
(UTC+00:00)

Cosmos 2297 - Pass Details

Date: 26 November 2021
Orbit: 838 x 856 km, 71.0° (Epoch: 20 January)

Event Time Altitude Azimuth Distance (km) Brightness Sun altitude
Rises 12:32:22 0° 222° (SW) 3,413 6.6 -7.8°
Reaches altitude 10° 12:35:00 10° 230° (SW) 2,481 5.9 -7.3°
Maximum altitude 12:40:13 36° 296° (WNW) 1,326 4.3 -6.3°
Drops below altitude 10° 12:45:28 10° 3° (N) 2,490 6.0 -5.3°
Sets 12:48:08 0° 12° (NNE) 3,428 6.8 -4.8°
